Wind_Speed
7 7 8 9 9 11 12 14 15 18 21 25 28 32 35 39 42 46 49 53 56 60 63 66 69 71 73 75 76 76 75 75 74 74 74 74 74 74 73 73 72 72 71 70
6 6 7 7 9 10 12 14 17 19 23 27 32 37 41 45 48 51 56 59 62 66 69 73 76 79 81 83 83 82 82 81 80 80 79 79 80 80 80 79 78 77 76 76
6 7 8 9 10 12 14 17 21 24 28 32 38 44 47 51 54 58 62 65 68 72 76 80 83 85 86 87 87 88 87 87 86 85 85 84 83 84 85 85 84 83 83 82
8 9 11 12 13 16 18 21 25 29 34 38 43 49 51 55 60 63 66 70 74 79 82 84 85 85 86 86 86 84 82 81 80 79 80 81 82 83 85 86 87 87 87 87
10 12 12 13 16 18 22 25 29 33 38 43 48 53 56 60 63 67 71 75 79 82 83 82 82 82 81 77 73 68 65 63 62 61 61 62 63 65 68 74 79 82 84 86
13 14 15 16 18 21 25 29 33 36 41 46 51 56 61 64 68 72 75 78 80 80 79 78 76 73 67 60 56 54 52 51 51 51 50 49 46 43 43 46 52 59 66 70
17 17 18 19 22 25 29 32 35 40 44 49 54 59 63 68 73 76 78 79 79 77 74 70 66 58 51 50 49 48 49 48 47 46 45 43 40 35 31 28 29 34 40 46
20 21 22 23 25 29 31 34 38 43 48 52 56 60 66 72 74 77 78 78 75 70 65 61 55 49 47 46 46 47 47 47 46 45 43 41 39 34 29 25 23 24 26 30
23 23 24 25 27 30 33 37 41 46 51 55 59 63 70 73 75 77 76 73 68 62 58 54 50 47 44 44 46 47 47 47 46 45 43 41 38 34 31 28 25 25 25 26
24 25 25 26 28 30 35 40 45 50 54 59 63 69 72 74 75 76 74 68 61 56 53 50 47 44 43 44 46 48 49 48 48 46 44 42 39 35 32 30 28 28 28 28
25 26 26 27 29 33 37 42 48 52 56 62 67 70 72 74 76 76 71 62 55 51 49 48 46 45 45 46 49 50 50 50 49 48 46 44 42 39 37 34 32 32 31 31
26 26 27 28 31 34 38 44 50 54 59 63 68 72 74 75 76 74 66 58 51 49 49 49 48 48 48 50 52 53 54 54 53 52 50 48 46 44 42 40 38 37 36 36
26 27 28 30 34 37 42 48 52 56 60 64 68 70 74 75 74 69 62 54 49 48 49 50 50 51 52 53 55 57 58 58 58 57 55 53 51 48 46 44 43 41 40 39
25 26 28 32 36 40 45 50 54 57 62 66 68 71 73 75 73 66 58 51 48 49 50 51 52 54 55 57 59 60 61 62 61 60 58 57 55 52 50 48 46 44 43 41
27 27 29 33 37 41 46 51 56 60 64 67 70 72 75 76 73 66 57 50 48 50 53 54 56 58 59 61 62 62 62 62 60 59 57 56 54 53 51 49 47 46 44 42
28 30 32 33 38 42 48 54 59 63 66 68 71 73 77 76 71 63 55 50 50 52 56 58 60 62 64 64 62 60 58 57 55 54 53 52 51 49 47 46 46 45 44 42
29 32 34 37 41 45 51 57 62 65 67 70 72 74 78 76 69 61 54 52 53 56 59 62 64 65 64 61 58 55 53 52 52 52 51 51 49 47 45 43 42 42 42 41
31 33 36 40 44 49 54 59 64 67 68 71 73 76 78 75 67 57 53 53 55 59 62 64 64 61 57 53 52 52 52 53 54 55 54 53 51 48 45 42 39 38 38 39
30 33 37 41 46 51 56 62 66 69 69 72 74 77 77 72 62 55 54 55 58 61 63 63 59 54 51 51 51 52 53 55 56 57 57 55 53 49 45 41 37 35 34 35
31 33 37 43 48 54 59 64 68 70 70 73 74 76 75 70 61 56 55 57 60 62 61 57 52 49 49 50 51 53 55 57 58 58 58 56 53 50 45 41 36 33 31 30
34 37 40 45 50 56 61 66 69 68 70 72 74 75 73 65 58 57 57 59 61 60 56 51 48 47 48 50 53 55 57 59 60 60 59 57 54 50 46 42 38 33 29 27
36 40 43 48 53 58 62 66 68 68 69 71 73 74 69 61 56 57 58 60 60 56 51 47 46 47 49 52 55 57 59 60 62 62 60 57 54 50 46 42 39 35 31 27
36 39 43 48 53 58 63 66 67 68 68 70 73 72 65 58 55 57 58 59 57 52 47 45 46 48 51 54 57 59 61 62 63 62 60 57 53 50 47 43 40 37 33 28
38 40 44 50 55 60 64 67 67 67 67 70 72 69 61 56 56 57 58 57 53 48 45 45 47 49 53 55 58 60 62 63 63 62 60 58 54 51 48 46 42 38 34 30
40 43 45 50 56 61 64 66 66 65 67 70 70 65 59 55 56 57 58 55 49 45 44 45 48 51 54 56 59 61 63 64 62 61 61 60 58 54 50 46 44 40 35 31
40 42 46 51 57 62 64 65 64 65 67 68 68 62 57 55 56 57 56 51 46 43 44 46 49 52 54 56 59 62 64 63 60 60 61 62 61 59 55 49 44 40 37 32
Wind_Direction
51 36 21 10 1 357 356 355 354 352 347 341 336 332 330 327 323 320 317 314 311 309 307 305 303 301 299 297 295 292 290 286 283 279 275 273 271 269 268 266 263 261 260 259
25 7 355 346 343 343 345 344 342 340 336 332 327 325 324 322 320 318 315 312 310 308 306 305 304 302 300 297 295 293 290 286 283 279 275 271 267 264 263 263 262 262 260 259
343 338 333 332 334 337 338 336 333 330 328 325 323 322 322 320 319 317 314 312 310 308 306 305 304 303 300 298 296 295 293 292 290 287 282 276 271 267 263 260 259 258 258 258
327 323 324 326 329 332 331 328 325 323 323 323 322 319 320 320 318 315 314 313 312 311 310 308 306 304 301 300 300 301 301 301 300 299 295 290 282 274 267 263 260 259 258 257
321 319 321 325 327 326 325 323 322 321 321 322 321 321 320 319 318 316 316 316 315 314 312 310 308 307 306 307 308 310 311 310 309 308 306 302 296 288 278 269 263 261 261 261
320 321 322 324 324 323 322 322 322 322 322 323 323 321 319 319 319 319 319 319 318 316 314 313 312 312 313 315 317 319 320 320 319 318 317 316 311 302 291 278 269 264 262 262
320 322 322 322 323 322 324 325 324 324 326 325 323 321 320 321 321 322 322 322 320 318 318 317 316 317 319 321 323 325 326 327 327 327 325 324 323 318 308 291 275 266 262 261
318 320 319 321 322 322 324 325 327 327 325 324 323 322 322 322 323 324 325 324 322 321 321 321 323 323 324 325 326 327 329 330 331 331 330 329 327 324 318 307 292 278 268 263
320 320 320 321 323 325 326 327 328 327 325 325 325 324 323 324 326 327 326 325 323 324 325 327 326 325 325 326 328 329 330 331 331 330 330 329 327 324 319 311 302 294 286 279
320 320 322 324 325 326 329 330 330 329 326 325 325 325 327 327 328 328 328 326 326 327 329 329 327 325 325 326 327 329 329 329 328 327 326 325 323 320 316 311 304 297 292 288
320 322 324 327 329 331 332 332 330 329 327 326 325 327 328 329 330 330 329 328 328 329 330 330 328 325 324 323 324 325 325 325 324 323 321 319 316 314 310 306 301 296 292 289
322 324 326 329 331 332 333 332 331 330 328 327 326 328 330 331 332 331 330 328 329 330 330 330 329 327 323 321 321 320 320 320 319 318 316 314 311 308 305 301 298 294 291 288
324 327 327 329 331 334 335 333 332 330 329 328 329 330 332 333 333 331 329 327 328 330 331 330 329 327 324 322 320 319 318 317 315 314 312 310 307 304 301 298 294 292 289 287
326 328 329 331 333 335 335 332 331 330 329 330 331 332 333 335 334 332 328 326 328 330 330 330 329 327 325 323 321 319 318 316 315 313 310 308 304 301 298 294 291 288 286 284
327 328 329 330 331 334 334 332 332 332 332 332 333 334 335 336 336 334 330 327 328 330 330 330 328 327 326 324 323 321 320 319 318 316 314 311 306 302 297 292 288 285 282 280
324 325 327 329 330 334 333 333 334 334 333 333 334 335 336 337 336 335 332 329 329 330 330 330 329 328 327 327 327 327 327 327 326 325 322 319 315 309 302 294 287 281 278 276
324 324 326 329 331 335 336 335 335 334 334 334 335 335 337 339 338 337 334 332 332 332 331 331 330 330 330 332 334 336 337 338 337 335 333 330 326 321 313 304 293 282 275 271
325 325 326 329 332 337 336 335 335 335 335 335 336 337 338 339 340 338 335 335 334 333 333 332 332 333 336 339 341 342 342 342 341 340 339 337 333 328 323 316 306 292 279 269
325 326 328 331 333 334 335 336 336 336 336 336 336 338 339 340 340 339 338 337 336 335 334 334 337 339 342 343 344 345 344 344 344 343 341 339 337 333 329 323 315 305 291 276
326 326 328 330 333 335 335 335 336 335 336 336 337 338 340 341 341 341 340 338 337 336 337 339 342 344 346 347 347 347 346 345 344 343 342 341 340 338 335 331 325 316 302 287
325 326 329 331 334 334 335 335 335 335 336 336 338 339 341 342 342 341 340 339 338 338 340 343 345 347 348 349 349 349 348 346 345 344 343 342 341 341 339 337 333 328 317 301
326 327 330 332 335 334 335 334 334 335 336 337 338 341 342 343 342 342 341 340 339 340 343 346 348 349 349 350 350 349 348 347 346 345 344 343 341 340 340 339 337 333 328 316
324 327 330 332 333 333 334 334 334 335 336 337 339 342 343 343 343 342 342 341 341 343 346 348 349 350 350 350 350 350 349 349 348 347 347 346 344 341 339 337 335 333 329 323
320 326 329 332 333 334 333 333 334 335 336 338 341 343 343 343 343 343 343 342 343 346 348 349 351 351 352 351 351 351 351 351 351 351 351 350 348 344 340 336 332 329 326 322
319 325 328 330 332 333 333 333 334 335 337 339 342 343 344 344 344 344 344 344 346 348 350 351 352 353 353 353 353 353 353 354 355 355 356 355 352 349 345 339 333 328 324 320
316 323 327 329 331 332 332 333 334 336 337 340 343 345 345 344 345 345 346 347 348 350 352 353 353 353 354 354 355 355 355 356 357 358 359 359 358 354 350 346 339 332 325 320
Height
5850 5849 5847 5847 5846 5844 5842 5840 5837 5834 5831 5827 5822 5818 5814 5809 5804 5798 5791 5783 5775 5766 5757 5747 5737 5728 5718 5709 5699 5691 5683 5675 5669 5663 5658 5655 5651 5649 5646 5644 5642 5641 5642 5642
5851 5850 5849 5847 5846 5843 5841 5838 5835 5832 5828 5824 5819 5814 5810 5804 5797 5790 5781 5772 5763 5754 5743 5732 5721 5710 5698 5686 5675 5665 5655 5647 5639 5633 5628 5625 5623 5621 5621 5620 5620 5619 5619 5620
5851 5850 5848 5846 5844 5842 5839 5836 5832 5829 5825 5820 5815 5809 5803 5797 5789 5780 5770 5760 5749 5738 5727 5715 5702 5689 5674 5660 5647 5635 5624 5615 5608 5601 5596 5594 5592 5591 5590 5590 5592 5593 5594 5595
5851 5849 5847 5845 5842 5840 5837 5834 5830 5825 5820 5815 5810 5802 5796 5788 5779 5768 5758 5746 5734 5722 5709 5694 5680 5666 5651 5637 5624 5613 5602 5591 5581 5572 5565 5559 5557 5558 5559 5560 5563 5565 5566 5569
5850 5847 5845 5843 5841 5838 5834 5830 5826 5820 5814 5809 5802 5794 5788 5778 5767 5756 5744 5732 5718 5705 5690 5675 5659 5644 5630 5617 5606 5596 5586 5575 5565 5555 5545 5536 5529 5525 5526 5529 5534 5538 5541 5544
5848 5846 5844 5841 5838 5835 5831 5827 5822 5816 5810 5803 5795 5786 5776 5765 5754 5742 5729 5716 5702 5687 5672 5657 5641 5627 5615 5604 5594 5585 5575 5565 5554 5544 5533 5523 5515 5508 5505 5504 5508 5513 5518 5522
5846 5844 5841 5838 5835 5832 5827 5823 5818 5811 5804 5797 5787 5776 5766 5754 5741 5728 5715 5701 5685 5670 5655 5641 5628 5616 5605 5595 5586 5576 5566 5557 5546 5536 5526 5516 5507 5501 5496 5493 5494 5496 5500 5504
5843 5841 5838 5835 5832 5828 5823 5818 5812 5805 5797 5789 5779 5768 5757 5744 5730 5716 5701 5685 5669 5655 5642 5628 5616 5605 5596 5587 5577 5568 5559 5549 5539 5530 5520 5511 5503 5497 5492 5488 5487 5487 5489 5491
5840 5838 5835 5832 5828 5824 5818 5812 5806 5798 5789 5780 5770 5759 5747 5732 5719 5704 5688 5672 5657 5644 5631 5618 5607 5597 5588 5579 5570 5560 5551 5542 5533 5524 5516 5508 5500 5493 5488 5484 5482 5481 5480 5481
5837 5835 5832 5828 5824 5819 5813 5806 5799 5790 5779 5770 5760 5748 5735 5720 5708 5693 5677 5662 5647 5634 5621 5610 5599 5589 5581 5572 5562 5553 5544 5535 5526 5518 5510 5503 5496 5490 5484 5480 5477 5474 5472 5471
5834 5831 5828 5824 5819 5814 5808 5801 5792 5783 5771 5759 5747 5740 5724 5709 5694 5679 5664 5649 5637 5625 5613 5602 5592 5582 5573 5564 5555 5546 5537 5528 5520 5511 5504 5497 5490 5484 5479 5474 5470 5466 5464 5462
5830 5828 5824 5820 5815 5810 5804 5795 5786 5777 5765 5752 5739 5730 5711 5696 5680 5665 5651 5638 5627 5616 5605 5595 5584 5574 5565 5556 5547 5538 5528 5519 5510 5502 5494 5487 5480 5474 5469 5464 5460 5456 5453 5450
5827 5824 5820 5815 5812 5806 5798 5789 5779 5770 5759 5746 5732 5722 5701 5686 5670 5654 5640 5629 5619 5609 5599 5588 5578 5567 5558 5548 5538 5528 5517 5508 5499 5490 5482 5474 5468 5462 5456 5451 5447 5443 5440 5437
5823 5820 5817 5812 5806 5800 5793 5783 5773 5763 5751 5738 5724 5711 5695 5679 5664 5649 5635 5623 5613 5602 5592 5581 5571 5560 5549 5538 5527 5516 5505 5494 5485 5475 5467 5459 5452 5446 5441 5436 5432 5429 5426 5423
5819 5816 5812 5807 5801 5796 5788 5778 5767 5755 5742 5729 5716 5701 5686 5671 5655 5640 5628 5617 5607 5597 5586 5574 5563 5552 5540 5528 5516 5504 5492 5481 5470 5460 5450 5442 5434 5427 5422 5418 5414 5412 5410 5408
5815 5811 5807 5803 5797 5791 5782 5771 5759 5747 5734 5720 5707 5692 5677 5661 5645 5632 5620 5610 5601 5590 5578 5566 5554 5541 5528 5516 5503 5491 5480 5468 5457 5446 5436 5426 5418 5410 5404 5399 5396 5394 5392 5391
5811 5807 5802 5797 5790 5784 5774 5762 5751 5739 5725 5711 5698 5685 5669 5654 5638 5624 5613 5603 5593 5582 5569 5556 5543 5530 5517 5504 5492 5480 5469 5458 5447 5437 5426 5415 5405 5396 5388 5382 5378 5375 5375 5375
5807 5802 5796 5790 5784 5775 5769 5755 5743 5730 5717 5702 5689 5674 5659 5644 5629 5616 5606 5596 5585 5574 5561 5547 5534 5521 5508 5496 5485 5474 5463 5452 5441 5429 5418 5407 5396 5385 5376 5369 5363 5359 5357 5358
5803 5797 5791 5784 5776 5769 5759 5747 5734 5722 5710 5696 5681 5667 5652 5637 5623 5612 5601 5589 5578 5565 5552 5538 5525 5513 5502 5491 5481 5470 5458 5447 5435 5423 5411 5399 5388 5376 5367 5358 5351 5346 5343 5342
5798 5793 5787 5778 5770 5761 5753 5740 5726 5714 5702 5688 5674 5660 5645 5630 5618 5607 5594 5583 5570 5556 5543 5530 5519 5508 5498 5488 5477 5466 5454 5442 5429 5417 5404 5392 5380 5368 5358 5349 5341 5335 5331 5328
5792 5786 5781 5772 5763 5754 5744 5731 5719 5707 5696 5680 5665 5651 5636 5622 5609 5598 5587 5575 5562 5549 5536 5525 5514 5505 5495 5485 5473 5461 5449 5436 5423 5410 5397 5384 5372 5361 5351 5341 5333 5327 5321 5318
5786 5780 5773 5765 5756 5749 5737 5724 5713 5701 5686 5673 5659 5644 5629 5615 5604 5593 5581 5569 5556 5544 5532 5522 5512 5502 5492 5481 5470 5458 5445 5432 5418 5404 5390 5377 5365 5354 5344 5335 5326 5319 5313 5309
5781 5776 5768 5761 5754 5743 5730 5718 5706 5693 5681 5667 5653 5639 5624 5612 5601 5589 5577 5565 5552 5540 5529 5519 5510 5500 5489 5478 5466 5454 5441 5427 5413 5398 5384 5371 5358 5347 5337 5329 5321 5313 5307 5301
5775 5770 5763 5755 5745 5736 5724 5712 5700 5687 5674 5661 5647 5633 5619 5608 5596 5585 5572 5560 5548 5537 5527 5518 5509 5498 5487 5476 5463 5450 5437 5422 5408 5394 5379 5366 5354 5342 5331 5320 5312 5305 5299 5293
5769 5763 5757 5749 5740 5730 5718 5706 5693 5681 5668 5655 5642 5628 5615 5603 5592 5581 5569 5556 5545 5535 5526 5517 5507 5496 5485 5473 5460 5447 5433 5419 5405 5391 5377 5363 5349 5337 5325 5314 5303 5295 5289 5283
5765 5759 5752 5744 5735 5724 5713 5700 5687 5675 5663 5650 5637 5623 5610 5600 5589 5577 5565 5553 5543 5534 5524 5515 5505 5494 5483 5471 5458 5445 5430 5416 5403 5389 5376 5361 5346 5332 5319 5307 5296 5285 5277 5272